sat.trackr.live / text

‹ back to catalog

STARLINK-11360 [DTC]

NORAD 61586 · 2024-187N

PAYLOAD ACTIVE UNKNOWN

§ Identity

Operator
Country
US
Launch date
2024-10-18
Launch site
AFETR
Launch vehicle
Mass (kg)
RCS (m²)

Purposes: comms

External: N2YO · Heavens-Above · Gunter

§ Orbital elements

Epoch: 2026-09-21T16:36:29.662272Z

Period
91.74 min
Inclination
53.1591°
Eccentricity
0.0000755
Mean motion
15.69705873 rev/d
Perigee alt
359.2 km
Apogee alt
360.2 km
Semi-major
6,737.9 km
B*
1.0114e-5
RAAN
50.1066°
Arg perigee
95.4721°
Mean anomaly
264.6383°
Rev number
11,158

§ Raw data

STARLINK-11360 [DTC]1 61586U 24187N   26264.69200998  .00000637  00000+0  10114-4 0  99972 61586  53.1591  50.1066 0000755  95.4721 264.6383 15.69705873111584

JSON: /api/v1/satellites/61586 · /tle

For live sub-satellite position, see the globe view (requires WebGL).

§ Visibility from observer

Set your observer location to see the next 7 days of passes ≥ 10°. The values pass through the URL so the page stays shareable.

No JS? Fill the form by hand. The geolocation button needs JavaScript.